Regional Weather Roundup
Issued by NWS Newport/Morehead, NC

Current Version | Previous Version | Text Only | Print | Product List | Glossary Off
Versions: 1 2 3 4 5 6 7 8 9 10 11 12 13 14 15 16 17 18 19 20 21 22 23 24 25 26 27 28 29 30 31 32 33 34 35 36 37 38 39 40 41 42 43 44 45 46 47 48 49 50
000 ASUS42 KMHX 230213 RWRMHX WEATHER ROUNDUP FOR EASTERN NORTH CAROLINA NATIONAL WEATHER SERVICE NEWPORT/MOREHEAD CITY NC 1000 PM EDT THU JUN 22 2017 NOTE: "FAIR" INDICATES FEW OR NO CLOUDS BELOW 12,000 FEET WITH NO SIGNIFICANT WEATHER AND/OR OBSTRUCTIONS TO VISIBILITY NCZ015>017-031-032-045>047-102-103-230300- NORTH COAST CITY SKY/WX TMP DP RH WIND PRES REMARKS EDENTON CLOUDY 82 74 77 CALM 30.04R ELIZABETH CITY CLOUDY 79 76 90 SW9 30.02R KITTY HAWK CLOUDY 80 73 79 CALM 30.02R MANTEO CLOUDY 80 73 81 W8 30.03R $$ NCZ045>047-081-094-103-104-230300- CENTRAL COAST CITY SKY/WX TMP DP RH WIND PRES REMARKS FRISCO CLOUDY 80 76 87 SW7 30.05R $$ NCZ095-097-098-100-101-230300- SOUTHERN COAST CITY SKY/WX TMP DP RH WIND PRES REMARKS BEAUFORT CLOUDY 79 76 90 SW8 30.07R CEDAR ISLAND NOT AVBL JACKSONVILLE CLOUDY 77 77 100 CALM 30.07R PINEY ISLAND MOCLDY N/A N/A N/A SW6 30.06R WILMINGTON MOCLDY 78 77 96 SW6 30.08R $$ NCZ011>013-027>030-043-044-078>080-089-090>093-098-230300- COASTAL PLAIN CITY SKY/WX TMP DP RH WIND PRES REMARKS AHOSKIE N/A 75 74 94 CALM 30.04R CLINTON CLOUDY 75 75 100 CALM 30.08R ELIZABETHTOWN NOT AVBL GOLDSBORO CLOUDY 77 77 100 S7 30.05R GREENVILLE LGT RAIN 79 77 94 SW6 30.07R HAVELOCK CLOUDY 78 74 87 SW7 30.08R KENANSVILLE PTCLDY 75 73 94 CALM 30.08R KINSTON LGT RAIN 77 75 94 SW5 30.07R NEW BERN MOCLDY 77 75 93 SW5 30.08R RICHLANDS PTCLDY 75 74 96 S3 30.09R ROCKY MOUNT CLOUDY 75 72 90 SW7 30.05R WASHINGTON CLOUDY 77 75 93 SW3 30.05R WHITEVILLE CLOUDY 79 76 91 CALM 30.07R $$ AMZ130-135-150-152-154-156-158-170-250-252-270-ANZ085-086-088-633-658-670-230300- MARINE OBSERVATIONS STATION/POSITION TIME TEMP WIND PRES WAVE SWELL AIR SEA DIR/SP/G HT/PER HT/PER (UTC) (F) (DEG/KT/KT) (MB) (FT/S) (FT/S) CHESAPEAKE LIGHT NOT AVBL 64 E VA BEACH 0150 74 72 230/ 10/ 10 1016.6 2/ 7 2/ 7 DUCK 0142 80 66 240/ 9/ 12 1016.3 2 E DUCK NOT AVBL OREGON INLET 0142 79 81 230/ 9/ 11 1016.9 13E OREGON INLT 0148 74 N/A 3/ 8 3/ 8 HATTERAS CG 0142 79 80 230/ 7/ 9 1017.4 DIAMOND BUOY 0150 80 80 230/ 12/ 14 1017.5 3/ 8 2/ 8 CAPE LOOKOUT 0200 79 220/ 7/ 9 1018.1 BEAUFORT LAB 0142 79 78 220/ 5/ 6 1017.7 30 SE NEW RVR IN 0108 80 81 230/ 12/ 14 1018.3 30 SE NEW RVR IN 0143 81 N/A 3/ 9 27 SE WRIGHTSVLE 0108 79 80 220/ 8/ 10 1018.1 5 SE WRIGHTSVLE 0108 80 79 220/ 8/ 14 1018.2 225 S CAPE HAT 0150 80 82 210/ 10/ 12 1020.5 4/ 9 3/ 9 41 SE CHARLESTON 0150 81 81 180/ 10/ 14 1018.1 3/ 7 3/ 7 $$

USA.gov is the U.S. government's official web portal to all federal, state and local government web resources and services.